Regional Weather Roundup
Issued by NWS

Home | Current Version | Previous Version | Text Only | Print | Product List | Glossary Off
Versions: 1 2 3 4 5 6 7 8 9 10 11 12 13 14 15 16 17 18 19 20 21 22 23 24 25 26 27 28 29 30 31 32 33 34 35 36 37 38 39 40 41 42 43 44 45 46 47 48 49 50

000
ASUS43 KBIS 181210
RWRND

NORTH DAKOTA REGIONAL WEATHER ROUNDUP
NATIONAL WEATHER SERVICE BISMARCK ND
600 AM CST THU JAN 18 2018

NOTE: "FAIR" INDICATES FEW OR NO CLOUDS BELOW 12,000 FEET WITH NO
SIGNIFICANT WEATHER AND/OR OBSTRUCTIONS TO VISIBILITY.


NDZ001>003-009>011-017-181300-
NORTHWEST NORTH DAKOTA

CITY           SKY/WX    TMP DP  RH WIND       PRES   REMARKS
WILLISTON      CLOUDY    18  14  84 CALM      29.81F
6HR MIN TEMP:  14; 6HR MAX TEMP:  22;

MINOT          CLOUDY    28  18  66 SW12      29.77S WCI  18
MINOT AFB      CLOUDY    23  16  75 W12       29.75F WCI  12
$$

NDZ018>021-031>035-040>046-181300-
SOUTHWEST NORTH DAKOTA

CITY           SKY/WX    TMP DP  RH WIND       PRES   REMARKS
BISMARCK       CLEAR     22  17  81 W7        29.83F WCI  13
6HR MIN TEMP:  18; 6HR MAX TEMP:  32;

DICKINSON      MOCLDY    30  20  66 W12       29.80F
GARRISON         N/A     20  15  81 CALM      29.79F
6HR MIN TEMP:  18; 6HR MAX TEMP:  25;

HETTINGER ARPT CLOUDY    26  17  68 NW7       29.86F WCI  18
$$

NDZ004>008-012>016-024-026-027-054-181300-
NORTHEAST NORTH DAKOTA

CITY           SKY/WX    TMP DP  RH WIND       PRES   REMARKS
GRAND FORKS    FAIR      27  20  75 N8        29.75S WCI  19
GRND FRKS AFB  FAIR      28  19  68 W12       29.75S WCI  18
DEVILS LAKE    FAIR      21  16  81 W12       29.77S WCI   9
$$

NDZ022-023-025-028>030-036>039-047>053-181300-
SOUTHEAST NORTH DAKOTA

CITY           SKY/WX    TMP DP  RH WIND       PRES   REMARKS
FARGO          FAIR      25  20  81 SW8       29.80S WCI  16
6HR MIN TEMP:  25; 6HR MAX TEMP:  34;

JAMESTOWN      CLOUDY    29  20  69 W12       29.79F WCI  19
$$





USA.gov is the U.S. government's official web portal to all federal, state and local government web resources and services.